| time (UTC) | temp F | wind direction | speed MPH | gust MPH | rain 1hr in | rain 24hr in | rain mn in | humidity % | barometer mb |
| 20260901054538 | 0 | 0.0 | 0.0 | 0.00 | 0.00 | 0.00 | 1016.2 | ||
| 20260901053043 | 0 | 0.0 | 0.0 | 0.00 | 0.00 | 0.00 | 1016.4 | ||
| 20260901051530 | 0 | 0.0 | 0.0 | 0.00 | 0.00 | 0.00 | 1016.6 | ||
| 20260901050025 | 0 | 0.0 | 0.0 | 0.00 | 0.00 | 0.00 | 1016.8 | ||
| 20260901044528 | 0 | 0.0 | 0.0 | 0.00 | 0.00 | 0.00 | 1016.8 | ||
| 20260901043021 | 0 | 0.0 | 0.0 | 0.00 | 0.00 | 0.00 | 1016.8 | ||
| 20260901041516 | 0 | 0.0 | 0.0 | 0.00 | 0.00 | 0.00 | 1016.9 | ||
| 20260901040008 | 0 | 0.0 | 0.0 | 0.00 | 0.00 | 0.00 | 1017.0 | ||
| 20260901034504 | 0 | 0.0 | 0.0 | 0.00 | 0.00 | 0.00 | 1017.1 | ||
| 20260901033113 | 0 | 0.0 | 0.0 | 0.00 | 0.00 | 0.00 | 1017.1 | ||
| 20260901031554 | 0 | 0.0 | 0.0 | 0.00 | 0.00 | 0.00 | 1017.0 | ||
| 20260901030050 | 0 | 0.0 | 0.0 | 0.00 | 0.00 | 0.00 | 1016.9 | ||
| 20260901024546 | 79 | 105 | 0.0 | 0.0 | 0.00 | 0.00 | 0.00 | 1 | 1016.9 |
| 20260901023049 | 79 | 119 | 0.0 | 0.0 | 0.00 | 0.00 | 0.00 | 1 | 1016.9 |
| 20260901021547 | 79 | 102 | 0.0 | 0.0 | 0.00 | 0.00 | 0.00 | 1 | 1016.8 |
| 20260901020036 | 79 | 131 | 0.0 | 0.0 | 0.00 | 0.00 | 0.00 | 1 | 1016.7 |
| 20260901014528 | 79 | 159 | 0.0 | 0.0 | 0.00 | 0.00 | 0.00 | 1 | 1016.7 |
| 20260901013034 | 79 | 160 | 0.0 | 0.0 | 0.00 | 0.00 | 0.00 | 1 | 1016.5 |
| 20260901011520 | 79 | 117 | 0.0 | 1.0 | 0.00 | 0.00 | 0.00 | 1 | 1016.4 |
| 20260901010015 | 79 | 108 | 0.0 | 0.0 | 0.00 | 0.00 | 0.00 | 1 | 1016.3 |
| 20260901004510 | 79 | 104 | 0.0 | 1.0 | 0.00 | 0.00 | 0.00 | 1 | 1016.4 |
| 20260901003007 | 79 | 110 | 0.0 | 0.0 | 0.00 | 0.00 | 0.00 | 1 | 1016.2 |
| 20260901001502 | 79 | 46 | 0.0 | 1.0 | 0.00 | 0.00 | 0.00 | 1 | 1016.2 |
| 20260901000105 | 80 | 86 | 0.0 | 1.0 | 0.00 | 0.00 | 0.00 | 1 | 1016.2 |
| 20260831234553 | 80 | 114 | 0.0 | 0.0 | 0.00 | 0.00 | 0.00 | 1 | 1016.2 |
| 20260831233050 | 80 | 15 | 0.0 | 1.0 | 0.00 | 0.00 | 0.00 | 1 | 1016.3 |
| 20260831231544 | 81 | 20 | 0.0 | 4.0 | 0.00 | 0.00 | 0.00 | 1 | 1016.7 |
| 20260831230043 | 82 | 94 | 0.0 | 4.0 | 0.00 | 0.00 | 0.00 | 1 | 1016.6 |
| 20260831224535 | 82 | 107 | 0.0 | 3.0 | 0.00 | 0.01 | 0.00 | 1 | 1016.4 |
| 20260831223031 | 82 | 113 | 1.0 | 4.0 | 0.00 | 0.01 | 0.00 | 1 | 1016.1 |
| 20260831221534 | 82 | 71 | 0.0 | 5.0 | 0.00 | 0.01 | 0.00 | 1 | 1016.1 |
| 20260831220021 | 84 | 24 | 1.0 | 7.0 | 0.00 | 0.01 | 0.00 | 40 | 1016.0 |
| 20260831214517 | 88 | 62 | 0.0 | 3.0 | 0.00 | 0.02 | 0.00 | 57 | 1015.2 |
| 20260831213014 | 88 | 52 | 0.0 | 2.0 | 0.00 | 0.02 | 0.00 | 59 | 1014.7 |
| 20260831211511 | 89 | 56 | 0.0 | 0.0 | 0.00 | 0.02 | 0.00 | 60 | 1015.1 |
| 20260831210003 | 89 | 64 | 0.0 | 1.0 | 0.00 | 0.02 | 0.00 | 57 | 1015.2 |
| 20260831204600 | 88 | 308 | 0.0 | 1.0 | 0.00 | 0.69 | 0.00 | 48 | 1015.3 |
| 20260831203104 | 86 | 44 | 0.0 | 3.0 | 0.00 | 0.69 | 0.00 | 31 | 1015.5 |
| 20260831201552 | 87 | 44 | 0.0 | 3.0 | 0.00 | 0.69 | 0.00 | 58 | 1015.5 |
| 20260831200050 | 88 | 35 | 0.0 | 2.0 | 0.00 | 0.69 | 0.00 | 46 | 1015.3 |
| 20260831194602 | 87 | 49 | 0.0 | 1.0 | 0.00 | 0.73 | 0.00 | 26 | 1015.4 |
| 20260831193044 | 89 | 67 | 0.0 | 1.0 | 0.00 | 0.73 | 0.00 | 51 | 1015.6 |
| 20260831191535 | 91 | 64 | 0.0 | 1.0 | 0.00 | 0.73 | 0.00 | 57 | 1015.6 |
| 20260831190042 | 93 | 277 | 0.0 | 1.0 | 0.00 | 0.73 | 0.00 | 60 | 1015.6 |
| 20260831184524 | 95 | 45 | 0.0 | 1.0 | 0.00 | 0.73 | 0.00 | 56 | 1015.5 |
| 20260831183019 | 95 | 232 | 0.0 | 0.0 | 0.00 | 0.73 | 0.00 | 57 | 1016.0 |
| 20260831181516 | 94 | 19 | 0.0 | 1.0 | 0.00 | 0.73 | 0.00 | 58 | 1016.1 |
| 20260831180010 | 95 | 20 | 0.0 | 0.0 | 0.00 | 0.73 | 0.00 | 57 | 1016.2 |
| 20260831174506 | 93 | 236 | 0.0 | 0.0 | 0.00 | 0.73 | 0.00 | 59 | 1016.4 |
| 20260831173003 | 94 | 231 | 0.0 | 1.0 | 0.00 | 0.73 | 0.00 | 59 | 1016.6 |
| 20260831171558 | 91 | 231 | 0.0 | 1.0 | 0.00 | 0.73 | 0.00 | 59 | 1016.8 |
| 20260831170057 | 91 | 149 | 0.0 | 1.0 | 0.00 | 0.73 | 0.00 | 58 | 1017.2 |
| 20260831164554 | 91 | 50 | 0.0 | 1.0 | 0.00 | 0.73 | 0.00 | 55 | 1017.3 |
| 20260831163045 | 91 | 235 | 0.0 | 0.0 | 0.00 | 0.73 | 0.00 | 52 | 1017.4 |
| 20260831161540 | 90 | 204 | 0.0 | 1.0 | 0.00 | 0.73 | 0.00 | 44 | 1017.4 |
| 20260831160035 | 89 | 126 | 0.0 | 1.0 | 0.00 | 0.73 | 0.00 | 37 | 1017.6 |
| 20260831154532 | 88 | 103 | 0.0 | 1.0 | 0.00 | 0.73 | 0.00 | 28 | 1017.7 |
| 20260831153027 | 88 | 169 | 0.0 | 1.0 | 0.00 | 0.73 | 0.00 | 2 | 1017.7 |
| 20260831151523 | 87 | 102 | 0.0 | 2.0 | 0.00 | 0.73 | 0.00 | 1 | 1017.6 |
| 20260831150020 | 87 | 206 | 0.0 | 0.0 | 0.00 | 0.73 | 0.00 | 1 | 1017.5 |
| 20260831144513 | 86 | 233 | 0.0 | 1.0 | 0.00 | 0.73 | 0.00 | 1 | 1017.6 |
| 20260831143011 | 85 | 98 | 0.0 | 1.0 | 0.00 | 0.73 | 0.00 | 1 | 1017.6 |
| 20260831141505 | 85 | 97 | 0.0 | 1.0 | 0.00 | 0.73 | 0.00 | 1 | 1017.5 |
| 20260831140100 | 85 | 115 | 0.0 | 0.0 | 0.00 | 0.73 | 0.00 | 1 | 1017.5 |
| 20260831134608 | 84 | 198 | 0.0 | 2.0 | 0.00 | 0.73 | 0.00 | 1 | 1017.4 |
| 20260831133102 | 82 | 104 | 0.0 | 0.0 | 0.00 | 0.73 | 0.00 | 1 | 1017.4 |
| 20260831131555 | 81 | 130 | 0.0 | 0.0 | 0.00 | 0.73 | 0.00 | 1 | 1017.4 |
| 20260831130043 | 79 | 167 | 0.0 | 1.0 | 0.00 | 0.73 | 0.00 | 1 | 1017.3 |
| 20260831124538 | 78 | 106 | 0.0 | 1.0 | 0.00 | 0.73 | 0.00 | 1 | 1017.1 |
| 20260831123034 | 78 | 119 | 0.0 | 0.0 | 0.00 | 0.73 | 0.00 | 1 | 1017.1 |
| 20260831121530 | 77 | 102 | 0.0 | 0.0 | 0.00 | 0.73 | 0.00 | 1 | 1016.9 |
| 20260831120035 | 77 | 169 | 0.0 | 0.0 | 0.00 | 0.73 | 0.00 | 1 | 1016.6 |
| 20260831114521 | 76 | 169 | 0.0 | 0.0 | 0.00 | 0.73 | 0.00 | 1 | 1016.4 |
| 20260831113017 | 74 | 126 | 0.0 | 0.0 | 0.00 | 0.73 | 0.00 | 1 | 1016.3 |
| 20260831111517 | 0 | 0.0 | 0.0 | 0.00 | 0.73 | 0.00 | 1016.0 | ||
| 20260831110011 | 0 | 0.0 | 0.0 | 0.00 | 0.73 | 0.00 | 1015.6 | ||
| 20260831104506 | 0 | 0.0 | 0.0 | 0.00 | 0.73 | 0.00 | 1015.6 | ||
| 20260831103002 | 0 | 0.0 | 0.0 | 0.00 | 0.73 | 0.00 | 1015.6 | ||
| 20260831101601 | 0 | 0.0 | 0.0 | 0.00 | 0.73 | 0.00 | 1015.5 | ||
| 20260831100054 | 0 | 0.0 | 0.0 | 0.00 | 0.73 | 0.00 | 1015.6 | ||
| 20260831094600 | 0 | 0.0 | 0.0 | 0.00 | 0.73 | 0.00 | 1015.6 | ||
| 20260831093126 | 0 | 0.0 | 0.0 | 0.00 | 0.73 | 0.00 | 1015.6 | ||
| 20260831091548 | 0 | 0.0 | 0.0 | 0.00 | 0.73 | 0.00 | 1015.5 | ||
| 20260831090036 | 0 | 0.0 | 0.0 | 0.00 | 0.73 | 0.00 | 1015.6 | ||
| 20260831084612 | 0 | 0.0 | 0.0 | 0.00 | 0.73 | 0.00 | 1015.7 | ||
| 20260831083028 | 0 | 0.0 | 0.0 | 0.00 | 0.73 | 0.00 | 1015.6 | ||
| 20260831081525 | 0 | 0.0 | 0.0 | 0.00 | 0.73 | 0.00 | 1015.6 | ||
| 20260831080036 | 0 | 0.0 | 0.0 | 0.00 | 0.73 | 0.00 | 1015.6 | ||
| 20260831074532 | 0 | 0.0 | 0.0 | 0.00 | 0.73 | 0.00 | 1015.6 | ||
| 20260831073013 | 0 | 0.0 | 0.0 | 0.00 | 0.73 | 0.00 | 1015.7 | ||
| 20260831071507 | 0 | 0.0 | 0.0 | 0.00 | 0.73 | 0.00 | 1015.8 | ||
| 20260831070003 | 0 | 0.0 | 0.0 | 0.00 | 0.73 | 0.00 | 1016.0 | ||
| 20260831064600 | 0 | 0.0 | 0.0 | 0.00 | 0.73 | 0.00 | 1016.1 | ||
| 20260831063109 | 0 | 0.0 | 0.0 | 0.00 | 0.73 | 0.00 | 1016.1 | ||
| 20260831061552 | 0 | 0.0 | 0.0 | 0.00 | 0.73 | 0.00 | 1016.2 | ||
| 20260831060049 | 0 | 0.0 | 0.0 | 0.00 | 0.73 | 0.00 | 1016.2 |